| time (UTC) | temp C | wind direction | speed KPH | gust KPH | rain 1hr cm | rain 24hr cm | rain mn cm | humidity % | barometer mb |
| 20260504160306 | 8 | 310 | 0.0 | 4.8 | 0.03 | 0.15 | 0.15 | 90 | 1007.2 |
| 20260504150804 | 7 | 0 | 0.0 | 3.2 | 0.08 | 0.13 | 0.13 | 91 | 1007.6 |
| 20260504141304 | 10 | 310 | 3.2 | 12.9 | 0.00 | 0.05 | 0.05 | 74 | 1006.8 |
| 20260504140304 | 10 | 305 | 3.2 | 12.9 | 0.00 | 0.05 | 0.05 | 79 | 1006.8 |
| 20260504130304 | 9 | 291 | 3.2 | 11.3 | 0.00 | 0.05 | 0.05 | 80 | 1006.5 |
| 20260504120304 | 4 | 310 | 0.0 | 0.0 | 0.00 | 0.05 | 0.05 | 99 | 1007.2 |
| 20260504110304 | 2 | 328 | 0.0 | 0.0 | 0.03 | 0.05 | 0.05 | 98 | 1007.5 |
| 20260504100304 | 2 | 14 | 1.6 | 8.0 | 0.03 | 0.03 | 0.03 | 93 | 1007.5 |
| 20260504081804 | 2 | 312 | 0.0 | 3.2 | 0.00 | 0.00 | 0.00 | 89 | 1007.8 |
| 20260504080804 | 2 | 108 | 1.6 | 3.2 | 0.00 | 0.00 | 0.00 | 89 | 1007.7 |
| 20260504070304 | 5 | 162 | 3.2 | 4.8 | 0.00 | 0.00 | 0.00 | 77 | 1008.2 |
| 20260504050304 | 0 | 308 | 0.0 | 1.6 | 0.00 | 0.00 | 0.00 | 90 | 1008.3 |
| 20260504045804 | 0 | 307 | 1.6 | 3.2 | 0.00 | 0.00 | 0.00 | 91 | 1008.5 |
| 20260504045305 | 0 | 331 | 0.0 | 0.0 | 0.00 | 0.00 | 0.00 | 90 | 1008.3 |
| 20260504044804 | 0 | 331 | 0.0 | 0.0 | 0.00 | 0.00 | 0.00 | 90 | 1008.5 |
| 20260504044304 | 0 | 331 | 0.0 | 1.6 | 0.00 | 0.00 | 0.00 | 90 | 1008.5 |
| 20260504043806 | 0 | 331 | 0.0 | 1.6 | 0.00 | 0.00 | 0.00 | 89 | 1008.4 |
| 20260504042804 | 0 | 331 | 0.0 | 1.6 | 0.00 | 0.00 | 0.00 | 90 | 1008.7 |
| 20260504042304 | 0 | 331 | 0.0 | 1.6 | 0.00 | 0.00 | 0.00 | 88 | 1008.7 |
| 20260504041805 | 0 | 331 | 0.0 | 1.6 | 0.00 | 0.00 | 0.00 | 87 | 1008.6 |
| 20260504040830 | 0 | 340 | 0.0 | 0.0 | 0.00 | 0.00 | 0.00 | 88 | 1008.6 |
| 20260504040305 | 0 | 340 | 0.0 | 1.6 | 0.00 | 0.00 | 0.00 | 87 | 1008.5 |
| 20260504035804 | 0 | 339 | 0.0 | 0.0 | 0.00 | 0.00 | 0.00 | 85 | 1008.6 |
| 20260504035305 | 0 | 339 | 0.0 | 0.0 | 0.00 | 0.00 | 0.00 | 84 | 1008.7 |
| 20260504034804 | 0 | 338 | 0.0 | 1.6 | 0.00 | 0.00 | 0.00 | 85 | 1008.5 |
| 20260504034305 | 0 | 26 | 0.0 | 1.6 | 0.00 | 0.00 | 0.00 | 85 | 1008.5 |
| 20260504033805 | 0 | 338 | 0.0 | 1.6 | 0.00 | 0.00 | 0.00 | 82 | 1008.6 |
| 20260504033305 | 0 | 9 | 0.0 | 1.6 | 0.00 | 0.00 | 0.00 | 81 | 1008.5 |
| 20260504032805 | 0 | 42 | 0.0 | 1.6 | 0.00 | 0.00 | 0.00 | 83 | 1008.6 |
| 20260504031804 | 0 | 334 | 0.0 | 1.6 | 0.00 | 0.00 | 0.00 | 84 | 1008.5 |
| 20260504031304 | 0 | 333 | 0.0 | 1.6 | 0.00 | 0.00 | 0.00 | 84 | 1008.4 |
| 20260504030804 | 1 | 299 | 0.0 | 4.8 | 0.00 | 0.00 | 0.00 | 81 | 1008.6 |
| 20260504030304 | 1 | 35 | 1.6 | 1.6 | 0.00 | 0.00 | 0.00 | 76 | 1008.7 |
| 20260504024804 | 1 | 74 | 1.6 | 3.2 | 0.00 | 0.00 | 0.00 | 77 | 1008.7 |
| 20260504023804 | 1 | 353 | 0.0 | 1.6 | 0.00 | 0.00 | 0.00 | 75 | 1008.6 |
| 20260504023305 | 1 | 351 | 0.0 | 0.0 | 0.00 | 0.00 | 0.00 | 77 | 1008.7 |
| 20260504022806 | 1 | 351 | 0.0 | 1.6 | 0.00 | 0.00 | 0.00 | 76 | 1008.6 |
| 20260504022305 | 1 | 353 | 0.0 | 0.0 | 0.00 | 0.00 | 0.00 | 76 | 1008.8 |
| 20260504021804 | 2 | 351 | 0.0 | 3.2 | 0.00 | 0.00 | 0.00 | 77 | 1008.7 |
| 20260504020805 | 2 | 294 | 0.0 | 4.8 | 0.00 | 0.00 | 0.00 | 75 | 1008.8 |
| 20260504020304 | 2 | 238 | 0.0 | 1.6 | 0.00 | 0.00 | 0.00 | 74 | 1008.8 |
| 20260504015805 | 2 | 238 | 0.0 | 0.0 | 0.00 | 0.00 | 0.00 | 73 | 1008.7 |
| 20260504015304 | 3 | 238 | 1.6 | 1.6 | 0.00 | 0.00 | 0.00 | 71 | 1008.8 |
| 20260504014804 | 3 | 207 | 0.0 | 1.6 | 0.00 | 0.00 | 0.00 | 67 | 1008.6 |
| 20260504013805 | 4 | 207 | 0.0 | 3.2 | 0.00 | 0.00 | 0.00 | 65 | 1008.7 |
| 20260504013304 | 5 | 151 | 3.2 | 4.8 | 0.00 | 0.00 | 0.00 | 59 | 1008.6 |
| 20260504012805 | 5 | 136 | 1.6 | 3.2 | 0.00 | 0.00 | 0.00 | 59 | 1008.8 |
| 20260504012305 | 5 | 143 | 3.2 | 4.8 | 0.00 | 0.00 | 0.00 | 58 | 1008.7 |
| 20260504011805 | 4 | 94 | 1.6 | 3.2 | 0.00 | 0.00 | 0.00 | 63 | 1008.5 |
| 20260504010805 | 6 | 142 | 3.2 | 3.2 | 0.00 | 0.00 | 0.00 | 55 | 1008.4 |
| 20260504010305 | 6 | 135 | 3.2 | 4.8 | 0.00 | 0.00 | 0.00 | 56 | 1008.6 |
| 20260504005804 | 6 | 80 | 3.2 | 4.8 | 0.00 | 0.00 | 0.00 | 56 | 1008.6 |
| 20260504005305 | 5 | 146 | 3.2 | 4.8 | 0.00 | 0.00 | 0.00 | 56 | 1008.4 |
| 20260504004804 | 5 | 161 | 3.2 | 4.8 | 0.00 | 0.00 | 0.00 | 57 | 1008.4 |
| 20260504004304 | 6 | 149 | 3.2 | 4.8 | 0.00 | 0.00 | 0.00 | 56 | 1008.3 |
| 20260504003804 | 6 | 180 | 1.6 | 3.2 | 0.00 | 0.00 | 0.00 | 55 | 1008.3 |
| 20260504003304 | 5 | 191 | 1.6 | 3.2 | 0.00 | 0.00 | 0.00 | 55 | 1008.2 |
| 20260504002804 | 6 | 242 | 1.6 | 3.2 | 0.00 | 0.00 | 0.00 | 58 | 1008.3 |
| 20260504002304 | 6 | 125 | 1.6 | 3.2 | 0.00 | 0.00 | 0.00 | 54 | 1008.2 |
| 20260504001804 | 6 | 17 | 1.6 | 3.2 | 0.00 | 0.00 | 0.00 | 55 | 1008.1 |
| 20260504000804 | 6 | 302 | 1.6 | 4.8 | 0.00 | 0.00 | 0.00 | 53 | 1008.2 |
| 20260503235804 | 7 | 329 | 0.0 | 9.7 | 0.00 | 0.00 | 0.00 | 51 | 1008.3 |
| 20260503235304 | 7 | 296 | 0.0 | 3.2 | 0.00 | 0.00 | 0.00 | 51 | 1008.1 |
| 20260503234805 | 7 | 284 | 3.2 | 9.7 | 0.00 | 0.03 | 0.00 | 50 | 1008.3 |
| 20260503234304 | 7 | 320 | 3.2 | 11.3 | 0.00 | 0.03 | 0.00 | 49 | 1008.2 |
| 20260503233804 | 7 | 281 | 4.8 | 12.9 | 0.00 | 0.03 | 0.00 | 49 | 1008.1 |
| 20260503233304 | 7 | 300 | 3.2 | 9.7 | 0.00 | 0.03 | 0.00 | 50 | 1008.0 |
| 20260503232804 | 7 | 297 | 4.8 | 9.7 | 0.00 | 0.05 | 0.00 | 49 | 1008.3 |
| 20260503232305 | 7 | 306 | 3.2 | 14.5 | 0.00 | 0.05 | 0.00 | 49 | 1008.0 |
| 20260503231804 | 8 | 306 | 3.2 | 11.3 | 0.00 | 0.08 | 0.00 | 48 | 1008.0 |
| 20260503231304 | 7 | 286 | 4.8 | 14.5 | 0.00 | 0.08 | 0.00 | 48 | 1008.1 |
| 20260503230804 | 7 | 297 | 8.0 | 16.1 | 0.00 | 0.10 | 0.00 | 50 | 1008.0 |
| 20260503230305 | 7 | 320 | 4.8 | 8.0 | 0.00 | 0.10 | 0.00 | 51 | 1008.0 |
| 20260503225804 | 8 | 275 | 1.6 | 8.0 | 0.00 | 0.10 | 0.00 | 50 | 1008.1 |
| 20260503225305 | 8 | 285 | 3.2 | 8.0 | 0.00 | 0.10 | 0.00 | 50 | 1008.0 |
| 20260503224804 | 8 | 308 | 3.2 | 8.0 | 0.00 | 0.10 | 0.00 | 47 | 1008.1 |
| 20260503224304 | 8 | 280 | 3.2 | 8.0 | 0.00 | 0.10 | 0.00 | 49 | 1008.0 |
| 20260503223804 | 8 | 299 | 4.8 | 12.9 | 0.00 | 0.10 | 0.00 | 46 | 1008.0 |
| 20260503223304 | 8 | 334 | 8.0 | 16.1 | 0.00 | 0.10 | 0.00 | 47 | 1008.1 |
| 20260503222804 | 8 | 307 | 8.0 | 16.1 | 0.00 | 0.10 | 0.00 | 48 | 1008.1 |
| 20260503222304 | 8 | 287 | 8.0 | 12.9 | 0.00 | 0.10 | 0.00 | 49 | 1008.0 |
| 20260503221804 | 7 | 310 | 4.8 | 19.3 | 0.00 | 0.10 | 0.00 | 49 | 1007.9 |
| 20260503221304 | 7 | 328 | 11.3 | 19.3 | 0.00 | 0.10 | 0.00 | 49 | 1008.0 |
| 20260503220804 | 8 | 281 | 6.4 | 14.5 | 0.00 | 0.10 | 0.00 | 49 | 1008.0 |
| 20260503220304 | 8 | 307 | 6.4 | 14.5 | 0.00 | 0.10 | 0.00 | 49 | 1008.0 |
| 20260503215305 | 8 | 313 | 3.2 | 9.7 | 0.00 | 0.10 | 0.00 | 51 | 1007.8 |
| 20260503214804 | 7 | 313 | 3.2 | 12.9 | 0.00 | 0.10 | 0.00 | 51 | 1008.0 |
| 20260503214304 | 7 | 295 | 8.0 | 22.5 | 0.00 | 0.10 | 0.00 | 48 | 1008.1 |
| 20260503213805 | 8 | 329 | 6.4 | 24.1 | 0.00 | 0.10 | 0.00 | 49 | 1008.0 |
| 20260503212805 | 7 | 321 | 4.8 | 12.9 | 0.00 | 0.10 | 0.00 | 52 | 1007.9 |
| 20260503211805 | 8 | 328 | 9.7 | 19.3 | 0.00 | 0.10 | 0.00 | 51 | 1007.9 |
| 20260503211304 | 8 | 284 | 4.8 | 19.3 | 0.00 | 0.10 | 0.00 | 49 | 1007.9 |
| 20260503210804 | 8 | 305 | 11.3 | 16.1 | 0.00 | 0.10 | 0.00 | 50 | 1007.9 |
| 20260503210305 | 8 | 319 | 8.0 | 14.5 | 0.00 | 0.10 | 0.00 | 51 | 1008.1 |
| 20260503205804 | 7 | 315 | 6.4 | 19.3 | 0.00 | 0.10 | 0.00 | 51 | 1008.0 |
| 20260503204804 | 7 | 257 | 9.7 | 16.1 | 0.00 | 0.10 | 0.00 | 52 | 1008.0 |
| 20260503203304 | 7 | 294 | 6.4 | 12.9 | 0.00 | 0.10 | 0.00 | 57 | 1008.0 |
| 20260503202304 | 7 | 306 | 8.0 | 19.3 | 0.00 | 0.10 | 0.00 | 55 | 1007.9 |
| 20260503201804 | 7 | 288 | 6.4 | 16.1 | 0.00 | 0.10 | 0.00 | 55 | 1007.8 |
| 20260503201304 | 7 | 298 | 8.0 | 16.1 | 0.00 | 0.10 | 0.00 | 53 | 1007.8 |
| 20260503200804 | 7 | 299 | 6.4 | 16.1 | 0.00 | 0.10 | 0.00 | 53 | 1007.9 |
| 20260503200304 | 8 | 271 | 4.8 | 12.9 | 0.00 | 0.10 | 0.00 | 52 | 1007.8 |
| 20260503195804 | 7 | 297 | 6.4 | 9.7 | 0.00 | 0.10 | 0.00 | 53 | 1007.8 |
| 20260503195305 | 7 | 293 | 6.4 | 16.1 | 0.00 | 0.10 | 0.00 | 55 | 1008.1 |
| 20260503194804 | 7 | 341 | 3.2 | 19.3 | 0.00 | 0.10 | 0.00 | 55 | 1008.1 |
| 20260503194304 | 7 | 306 | 8.0 | 20.9 | 0.00 | 0.10 | 0.00 | 53 | 1008.2 |
| 20260503193804 | 7 | 302 | 8.0 | 20.9 | 0.00 | 0.10 | 0.00 | 51 | 1008.1 |
| 20260503193304 | 7 | 296 | 11.3 | 20.9 | 0.00 | 0.10 | 0.00 | 50 | 1008.1 |
| 20260503192804 | 7 | 318 | 6.4 | 22.5 | 0.00 | 0.10 | 0.00 | 51 | 1008.1 |
| 20260503192305 | 8 | 319 | 11.3 | 25.7 | 0.00 | 0.10 | 0.00 | 50 | 1008.2 |
| 20260503191804 | 7 | 264 | 11.3 | 25.7 | 0.00 | 0.10 | 0.00 | 50 | 1008.2 |
| 20260503191304 | 7 | 296 | 8.0 | 20.9 | 0.00 | 0.10 | 0.00 | 52 | 1008.1 |
| 20260503190805 | 7 | 338 | 11.3 | 22.5 | 0.00 | 0.10 | 0.00 | 51 | 1008.3 |
| 20260503190304 | 7 | 311 | 8.0 | 24.1 | 0.00 | 0.10 | 0.00 | 52 | 1008.2 |
| 20260503185804 | 7 | 327 | 6.4 | 14.5 | 0.00 | 0.10 | 0.00 | 50 | 1008.3 |
| 20260503185305 | 7 | 329 | 6.4 | 19.3 | 0.00 | 0.10 | 0.00 | 53 | 1008.1 |
| 20260503184304 | 7 | 19 | 9.7 | 20.9 | 0.00 | 0.10 | 0.00 | 53 | 1008.4 |
| 20260503183806 | 7 | 284 | 14.5 | 25.7 | 0.00 | 0.10 | 0.00 | 50 | 1008.2 |
| 20260503183304 | 7 | 295 | 9.7 | 20.9 | 0.00 | 0.10 | 0.00 | 50 | 1008.3 |
| 20260503182805 | 7 | 295 | 9.7 | 19.3 | 0.00 | 0.10 | 0.00 | 52 | 1008.1 |
| 20260503182306 | 7 | 298 | 9.7 | 20.9 | 0.00 | 0.10 | 0.00 | 51 | 1008.4 |
| 20260503181804 | 7 | 298 | 6.4 | 20.9 | 0.00 | 0.10 | 0.00 | 50 | 1008.2 |
| 20260503181304 | 7 | 312 | 11.3 | 24.1 | 0.00 | 0.10 | 0.00 | 49 | 1008.4 |
| 20260503180804 | 8 | 279 | 9.7 | 24.1 | 0.00 | 0.10 | 0.00 | 49 | 1008.4 |
| 20260503175804 | 7 | 337 | 4.8 | 19.3 | 0.00 | 0.10 | 0.00 | 50 | 1008.3 |
| 20260503175305 | 7 | 326 | 3.2 | 24.1 | 0.00 | 0.10 | 0.00 | 52 | 1008.5 |
| 20260503174804 | 6 | 341 | 11.3 | 24.1 | 0.00 | 0.10 | 0.00 | 52 | 1008.3 |
| 20260503174304 | 6 | 305 | 12.9 | 22.5 | 0.00 | 0.10 | 0.00 | 53 | 1008.4 |
| 20260503173305 | 7 | 292 | 8.0 | 29.0 | 0.00 | 0.10 | 0.00 | 58 | 1008.4 |
| 20260503172804 | 7 | 296 | 14.5 | 24.1 | 0.00 | 0.10 | 0.00 | 54 | 1008.4 |
| 20260503172305 | 7 | 315 | 11.3 | 22.5 | 0.00 | 0.10 | 0.00 | 54 | 1008.3 |
| 20260503170804 | 7 | 291 | 9.7 | 25.7 | 0.00 | 0.10 | 0.00 | 50 | 1008.4 |
| 20260503170304 | 7 | 268 | 9.7 | 22.5 | 0.00 | 0.10 | 0.00 | 48 | 1008.5 |